FW7828 Weather Reports


time (UTC)temp
F
wind
direction
speed
knots
gust
knots
rain 1hr
in
rain 24hr
in
rain mn
in
humidity
%
barometer
mb
20260505050651 63 260 0.0 0.9 0.00 0.00 0.00 77 1015.4
20260505050149 63 237 0.9 0.9 0.00 0.00 0.00 76 1015.2
20260505041619 64 238 0.0 0.9 0.00 0.00 0.00 75 1015.2
20260505041116 64 277 0.9 0.9 0.00 0.00 0.00 74 1015.2
20260505040613 64 181 0.0 0.0 0.00 0.00 0.00 74 1015.3
20260505040110 64 297 0.9 1.7 0.00 0.00 0.00 74 1015.4
20260505035606 65 252 0.9 0.9 0.00 0.00 0.00 74 1015.2
20260505035103 65 224 1.7 4.3 0.00 0.00 0.00 74 1015.4
20260505034559 65 219 1.7 1.7 0.00 0.00 0.00 73 1015.1
20260505034056 65 185 0.9 2.6 0.00 0.00 0.00 74 1015.0
20260505033553 65 224 0.9 1.7 0.00 0.00 0.00 73 1014.9
20260505033052 65 228 0.9 0.9 0.00 0.00 0.00 73 1014.8
20260505032549 65 205 0.0 0.9 0.00 0.00 0.00 72 1014.8
20260505032045 65 242 1.7 1.7 0.00 0.00 0.00 72 1014.9
20260505031543 65 178 3.5 5.2 0.00 0.00 0.00 72 1014.8
20260505031039 65 242 2.6 4.3 0.00 0.00 0.00 73 1015.0
20260505030536 65 223 0.9 0.9 0.00 0.00 0.00 73 1014.9
20260505030032 65 214 0.9 1.7 0.00 0.00 0.00 72 1015.1
20260505025528 65 242 1.7 1.7 0.00 0.00 0.00 73 1014.9
20260505025027 65 179 0.9 1.7 0.00 0.00 0.00 73 1015.0
20260505024524 65 200 1.7 1.7 0.00 0.00 0.00 72 1015.0
20260505024021 65 214 2.6 2.6 0.00 0.00 0.00 72 1014.9
20260505023518 65 237 1.7 2.6 0.00 0.00 0.00 72 1014.9
20260505023015 65 210 1.7 2.6 0.00 0.00 0.00 73 1015.0
20260505022513 65 206 2.6 4.3 0.00 0.00 0.00 72 1015.0
20260505022010 65 198 2.6 5.2 0.00 0.00 0.00 73 1014.9
20260505021506 65 237 2.6 4.3 0.00 0.00 0.00 73 1014.9
20260505021003 66 176 0.9 1.7 0.00 0.00 0.00 72 1015.0
20260505020457 66 205 3.5 4.3 0.00 0.00 0.00 73 1015.0
20260505015954 66 174 4.3 8.7 0.00 0.00 0.00 71 1015.1
20260505015452 66 188 3.5 4.3 0.00 0.00 0.00 72 1015.0
20260505014949 66 139 5.2 6.1 0.00 0.00 0.00 72 1014.7
20260505014445 66 221 1.7 1.7 0.00 0.00 0.00 71 1014.7
20260505013943 66 207 1.7 2.6 0.00 0.00 0.00 72 1014.6
20260505013440 66 208 3.5 4.3 0.00 0.00 0.00 71 1014.7
20260505012937 66 181 2.6 2.6 0.00 0.00 0.00 70 1014.7
20260505012435 66 190 2.6 4.3 0.00 0.00 0.00 72 1014.6
20260505011931 66 177 2.6 4.3 0.00 0.00 0.00 72 1014.5
20260505011427 66 171 1.7 2.6 0.00 0.00 0.00 72 1014.5
20260505010924 66 246 2.6 4.3 0.00 0.00 0.00 72 1014.5
20260505010420 66 198 0.9 0.9 0.00 0.00 0.00 70 1014.5
20260505005916 67 169 1.7 1.7 0.00 0.00 0.00 71 1014.6
20260505005413 67 185 1.7 2.6 0.00 0.00 0.00 71 1014.3
20260505004911 67 164 2.6 5.2 0.00 0.00 0.00 71 1014.1
20260505004407 67 184 4.3 6.1 0.00 0.00 0.00 69 1014.1
20260505003904 67 148 2.6 4.3 0.00 0.00 0.00 70 1014.0
20260505003401 67 161 2.6 4.3 0.00 0.00 0.00 69 1014.0
20260505002857 68 160 3.5 6.1 0.00 0.00 0.00 70 1013.9
20260505002354 68 173 3.5 6.1 0.00 0.00 0.00 70 1013.9
20260505001853 68 140 2.6 4.3 0.00 0.00 0.00 69 1013.9
20260505001349 68 187 2.6 5.2 0.00 0.00 0.00 69 1013.9
20260505000847 68 172 4.3 6.1 0.00 0.00 0.00 69 1013.5
20260505000344 68 196 2.6 2.6 0.00 0.00 0.00 69 1013.5
20260504235841 68 170 4.3 6.1 0.00 0.00 0.00 69 1013.4
20260504235338 68 184 4.3 7.0 0.00 0.00 0.00 69 1013.5
20260504234834 68 197 4.3 5.2 0.00 0.00 0.00 68 1013.3
20260504234332 69 180 3.5 5.2 0.00 0.00 0.00 69 1013.1
20260504233829 69 204 3.5 5.2 0.00 0.00 0.00 68 1013.1
20260504233324 69 187 2.6 4.3 0.00 0.00 0.00 68 1013.0
20260504232821 69 204 3.5 4.3 0.00 0.00 0.00 68 1012.8
20260504232318 69 187 4.3 6.1 0.00 0.00 0.00 69 1012.8
20260504231815 69 196 3.5 4.3 0.00 0.00 0.00 66 1012.9
20260504231312 69 187 3.5 5.2 0.00 0.00 0.00 67 1012.9
20260504230808 70 140 5.2 7.8 0.00 0.00 0.00 66 1013.0
20260504230306 70 210 6.1 8.7 0.00 0.00 0.00 65 1012.7
20260504225805 70 169 5.2 7.0 0.00 0.00 0.00 66 1012.7
20260504225300 70 180 4.3 5.2 0.00 0.00 0.00 67 1012.9
20260504224758 70 162 7.8 8.7 0.00 0.00 0.00 63 1012.4
20260504224255 70 192 7.8 8.7 0.00 0.00 0.00 63 1012.6
20260504223751 70 184 4.3 6.1 0.00 0.00 0.00 65 1012.6
20260504223247 70 205 4.3 6.1 0.00 0.00 0.00 65 1012.9
20260504222744 71 166 6.1 8.7 0.00 0.00 0.00 64 1012.7
20260504222240 71 167 7.8 9.6 0.00 0.00 0.00 64 1012.8
20260504221738 71 194 2.6 4.3 0.00 0.00 0.00 62 1012.7
20260504221235 71 213 2.6 4.3 0.00 0.00 0.00 65 1012.8
20260504220732 71 165 3.5 4.3 0.00 0.00 0.00 66 1012.8
20260504220229 71 184 3.5 4.3 0.00 0.00 0.00 65 1012.6
20260504215726 72 178 2.6 2.6 0.00 0.00 0.00 64 1012.9
20260504215223 72 176 4.3 6.1 0.00 0.00 0.00 63 1012.8
20260504214719 71 195 4.3 5.2 0.00 0.00 0.00 66 1012.8
20260504214215 71 175 2.6 2.6 0.00 0.00 0.00 66 1012.8
20260504213712 72 174 5.2 7.0 0.00 0.00 0.00 63 1012.9
20260504213209 72 161 2.6 2.6 0.00 0.00 0.00 66 1012.9
20260504212706 72 137 3.5 5.2 0.00 0.00 0.00 64 1012.7
20260504212202 72 178 4.3 5.2 0.00 0.00 0.00 65 1012.9
20260504211700 72 149 2.6 2.6 0.00 0.00 0.00 66 1013.1
20260504211155 72 157 4.3 5.2 0.00 0.00 0.00 66 1012.9
20260504210653 72 192 7.0 7.8 0.00 0.00 0.00 64 1013.0
20260504210150 72 170 4.3 5.2 0.00 0.00 0.00 63 1013.0
20260504205647 73 159 2.6 2.6 0.00 0.00 0.00 61 1012.8
20260504205144 73 162 2.6 4.3 0.00 0.00 0.00 60 1012.9
20260504204643 73 160 2.6 2.6 0.00 0.00 0.00 63 1012.9
20260504204141 73 162 2.6 2.6 0.00 0.00 0.00 64 1012.9
20260504203640 74 236 2.6 2.6 0.00 0.00 0.00 57 1013.0
20260504203137 73 169 3.5 4.3 0.00 0.00 0.00 63 1012.9
20260504202637 74 153 1.7 1.7 0.00 0.00 0.00 63 1013.1
20260504202134 75 163 2.6 2.6 0.00 0.00 0.00 59 1013.2
20260504201631 75 178 4.3 5.2 0.00 0.00 0.00 54 1013.1
20260504201129 76 198 2.6 2.6 0.00 0.00 0.00 50 1013.1
20260504200626 77 149 5.2 6.1 0.00 0.00 0.00 50 1013.1
20260504200122 77 191 4.3 6.1 0.00 0.00 0.00 51 1013.0
20260504195618 76 217 2.6 2.6 0.00 0.00 0.00 53 1012.9
20260504195115 76 176 2.6 4.3 0.00 0.00 0.00 50 1013.0
20260504194612 76 180 3.5 5.2 0.00 0.00 0.00 53 1013.1
20260504194107 76 241 0.9 1.7 0.00 0.00 0.00 49 1013.0
20260504193604 76 210 1.7 2.6 0.00 0.00 0.00 48 1013.0
20260504193102 77 175 2.6 5.2 0.00 0.00 0.00 51 1013.2
20260504192600 77 189 0.9 2.6 0.00 0.00 0.00 43 1013.0
20260504192058 77 217 1.7 1.7 0.00 0.00 0.00 49 1013.4
20260504191556 76 180 1.7 1.7 0.00 0.00 0.00 53 1013.5
20260504191052 75 185 2.6 4.3 0.00 0.00 0.00 53 1013.5
20260504190548 75 149 2.6 2.6 0.00 0.00 0.00 54 1013.8
20260504190044 77 156 3.5 5.2 0.00 0.00 0.00 51 1013.6
20260504185542 76 182 2.6 2.6 0.00 0.00 0.00 52 1013.6
20260504185038 75 195 1.7 1.7 0.00 0.00 0.00 49 1014.1
20260504184533 76 166 2.6 4.3 0.00 0.00 0.00 49 1014.0
20260504184029 75 131 2.6 2.6 0.00 0.00 0.00 51 1014.0
20260504183526 76 178 0.9 0.9 0.00 0.00 0.00 48 1014.2
20260504183025 76 119 1.7 1.7 0.00 0.00 0.00 47 1014.3
20260504182521 75 158 1.7 2.6 0.00 0.00 0.00 47 1014.4
20260504182018 75 184 0.0 0.9 0.00 0.00 0.00 47 1014.4
20260504181515 75 221 1.7 4.3 0.00 0.00 0.00 50 1014.5
20260504181014 75 172 0.9 2.6 0.00 0.00 0.00 52 1014.3
20260504180512 74 84 0.9 1.7 0.00 0.00 0.00 50 1014.6
20260504180011 74 132 0.9 1.7 0.00 0.00 0.00 55 1014.6
20260504175508 74 160 2.6 2.6 0.00 0.00 0.00 53 1014.6
20260504175005 74 185 2.6 2.6 0.00 0.00 0.00 50 1014.8
20260504174502 74 89 0.9 1.7 0.00 0.00 0.00 51 1014.9
20260504173959 74 159 3.5 4.3 0.00 0.00 0.00 53 1015.0
20260504173456 73 120 0.9 0.9 0.00 0.00 0.00 54 1015.1
20260504172953 73 137 2.6 2.6 0.00 0.00 0.00 60 1015.2
20260504172449 73 169 2.6 4.3 0.00 0.00 0.00 57 1015.1
20260504171946 73 128 0.9 1.7 0.00 0.00 0.00 56 1015.2
20260504171443 73 151 1.7 1.7 0.00 0.00 0.00 56 1015.2
20260504170940 73 160 1.7 1.7 0.00 0.00 0.00 57 1015.3
20260504170436 72 157 2.6 2.6 0.00 0.00 0.00 58 1015.6
20260504160355 71 170 3.5 4.3 0.00 0.00 0.00 58 1016.0
20260504150820 69 176 0.0 1.7 0.00 0.00 0.00 60 1016.4
20260504150316 68 159 0.9 0.9 0.00 0.00 0.00 61 1016.4
20260504141247 66 229 0.0 0.9 0.00 0.00 0.00 67 1016.4
20260504140743 66 186 2.6 2.6 0.00 0.00 0.00 66 1016.2
20260504140239 65 186 3.5 4.3 0.00 0.00 0.00 68 1016.5
20260504130708 60 98 0.9 0.9 0.00 0.00 0.00 76 1017.0
20260504130203 60 153 0.0 0.0 0.00 0.00 0.00 76 1016.8
20260504120127 56 215 0.0 0.9 0.00 0.00 0.00 83 1017.2
20260504110555 54 180 1.7 2.6 0.00 0.00 0.00 86 1017.4
20260504100516 53 229 0.0 0.0 0.00 0.00 0.00 88 1016.7
20260504081904 50 323 0.0 0.0 0.00 0.00 0.00 93 1017.3
20260504081400 50 331 0.0 0.0 0.00 0.00 0.00 93 1017.2
20260504080856 50 337 0.0 0.0 0.00 0.00 0.00 93 1017.1
20260504080353 50 339 0.0 0.0 0.00 0.00 0.00 93 1017.2
20260504070321 51 328 0.0 0.0 0.00 0.00 0.00 91 1017.4
20260504060241 56 190 2.6 4.3 0.00 0.00 0.00 85 1017.2